Time,TemperatureF,DewpointF,PressureIn,WindDirection,WindDirectionDegrees,WindSpeedMPH,WindSpeedGustMPH,Humidity,HourlyPrecipIn,Conditions,Clouds,dailyrainin,SoftwareType,DateUTC
2013-08-12 00:01:00,66.9,59.5,30.06,SE,125,4.0,6.0,77,0.00,,,0.00,meteohub,2013-08-12 04:01:00,
2013-08-12 00:02:00,66.9,59.5,30.06,ESE,121,4.0,6.0,77,0.00,,,0.00,meteohub,2013-08-12 04:02:00,
2013-08-12 00:03:00,67.1,59.7,30.06,SE,124,4.0,6.0,77,0.00,,,0.00,meteohub,2013-08-12 04:03:00,
2013-08-12 00:07:00,66.9,59.9,30.06,ESE,116,3.0,6.0,78,0.00,,,0.00,meteohub,2013-08-12 04:07:00,
2013-08-12 00:12:00,66.7,59.7,30.06,SE,129,3.0,6.0,78,0.00,,,0.00,meteohub,2013-08-12 04:12:00,
2013-08-12 00:18:00,66.9,59.5,30.06,ESE,115,3.0,6.0,77,0.00,,,0.00,meteohub,2013-08-12 04:18:00,
2013-08-12 00:23:00,66.9,59.5,30.06,SE,129,2.0,6.0,77,0.00,,,0.00,meteohub,2013-08-12 04:23:00,
2013-08-12 00:28:00,67.1,59.4,30.06,ESE,102,3.0,4.0,76,0.00,,,0.00,meteohub,2013-08-12 04:28:00,
2013-08-12 00:33:00,66.9,59.5,30.06,ESE,118,2.0,4.0,77,0.00,,,0.00,meteohub,2013-08-12 04:33:00,
2013-08-12 00:39:00,66.7,59.7,30.06,East,85,1.0,4.0,78,0.00,,,0.00,meteohub,2013-08-12 04:39:00,
2013-08-12 00:44:00,66.6,59.9,30.06,ESE,113,1.0,4.0,79,0.00,,,0.00,meteohub,2013-08-12 04:44:00,
2013-08-12 00:49:00,66.6,59.9,30.06,ESE,121,3.0,3.0,79,0.00,,,0.00,meteohub,2013-08-12 04:49:00,
2013-08-12 00:54:00,66.6,60.3,30.05,ESE,108,2.0,3.0,80,0.00,,,0.00,meteohub,2013-08-12 04:54:00,
2013-08-12 01:00:00,66.4,60.1,30.06,ESE,108,1.0,3.0,80,0.00,,,0.00,meteohub,2013-08-12 05:00:00,
2013-08-12 01:05:00,66.4,60.1,30.06,SE,125,2.0,3.0,80,0.00,,,0.00,meteohub,2013-08-12 05:05:00,
2013-08-12 01:10:00,66.4,59.7,30.06,ESE,116,3.0,3.0,79,0.00,,,0.00,meteohub,2013-08-12 05:10:00,
2013-08-12 01:15:00,66.6,59.9,30.06,ESE,115,5.0,5.0,79,0.00,,,0.00,meteohub,2013-08-12 05:15:00,
2013-08-12 01:21:00,66.6,60.3,30.06,SW,224,4.0,6.0,80,0.00,,,0.00,meteohub,2013-08-12 05:21:00,
2013-08-12 01:26:00,66.9,60.3,30.05,SSE,152,1.0,7.0,79,0.00,,,0.00,meteohub,2013-08-12 05:26:00,
2013-08-12 01:31:00,66.9,60.3,30.05,SE,140,2.0,7.0,79,0.00,,,0.00,meteohub,2013-08-12 05:31:00,
2013-08-12 01:36:00,67.3,60.3,30.05,SE,142,4.0,5.0,78,0.00,,,0.00,meteohub,2013-08-12 05:36:00,
2013-08-12 01:41:00,67.3,60.3,30.05,SE,131,3.0,5.0,78,0.00,,,0.00,meteohub,2013-08-12 05:41:00,
2013-08-12 01:47:00,67.3,60.6,30.05,SE,136,3.0,5.0,79,0.00,,,0.00,meteohub,2013-08-12 05:47:00,
2013-08-12 01:52:00,67.3,60.6,30.05,SSE,167,2.0,5.0,79,0.00,,,0.00,meteohub,2013-08-12 05:52:00,
2013-08-12 01:57:00,67.3,61.0,30.05,South,188,2.0,4.0,80,0.00,,,0.00,meteohub,2013-08-12 05:57:00,
2013-08-12 02:02:00,67.3,61.0,30.05,SSE,155,1.0,4.0,80,0.00,,,0.00,meteohub,2013-08-12 06:02:00,
2013-08-12 02:07:00,67.1,61.2,30.04,SSW,204,0.0,4.0,81,0.00,,,0.00,meteohub,2013-08-12 06:07:00,
2013-08-12 02:12:00,66.9,61.2,30.04,East,92,1.0,4.0,82,0.00,,,0.00,meteohub,2013-08-12 06:12:00,
2013-08-12 02:17:00,66.7,61.3,30.04,ESE,121,1.0,3.0,83,0.00,,,0.00,meteohub,2013-08-12 06:17:00,
2013-08-12 02:22:00,66.6,61.2,30.04,ESE,122,1.0,3.0,83,0.00,,,0.00,meteohub,2013-08-12 06:22:00,
2013-08-12 02:27:00,66.4,61.3,30.04,ESE,122,1.0,4.0,84,0.00,,,0.00,meteohub,2013-08-12 06:27:00,
2013-08-12 02:32:00,66.4,61.3,30.04,SE,139,1.0,4.0,84,0.00,,,0.00,meteohub,2013-08-12 06:32:00,
2013-08-12 02:38:00,66.4,61.3,30.04,SE,146,2.0,4.0,84,0.00,,,0.00,meteohub,2013-08-12 06:38:00,
2013-08-12 02:43:00,66.6,61.5,30.03,ESE,122,3.0,4.0,84,0.00,,,0.00,meteohub,2013-08-12 06:43:00,
2013-08-12 02:48:00,66.6,61.5,30.03,ESE,123,2.0,3.0,84,0.00,,,0.00,meteohub,2013-08-12 06:48:00,
2013-08-12 02:53:00,66.4,61.3,30.03,ESE,118,3.0,5.0,84,0.00,,,0.00,meteohub,2013-08-12 06:53:00,
2013-08-12 02:59:00,66.4,61.7,30.03,ESE,120,2.0,5.0,85,0.00,,,0.00,meteohub,2013-08-12 06:59:00,
2013-08-12 03:04:00,66.4,61.7,30.03,ESE,110,3.0,5.0,85,0.00,,,0.00,meteohub,2013-08-12 07:04:00,
2013-08-12 03:09:00,66.2,61.5,30.03,SE,127,4.0,5.0,85,0.00,,,0.00,meteohub,2013-08-12 07:09:00,
2013-08-12 03:14:00,66.4,61.3,30.03,ESE,119,3.0,4.0,84,0.00,,,0.00,meteohub,2013-08-12 07:14:00,
2013-08-12 03:19:00,66.6,61.5,30.03,SE,140,3.0,4.0,84,0.00,,,0.00,meteohub,2013-08-12 07:19:00,
2013-08-12 03:25:00,66.6,61.5,30.03,SSE,148,2.0,4.0,84,0.00,,,0.00,meteohub,2013-08-12 07:25:00,
2013-08-12 03:30:00,66.7,61.3,30.03,SSE,166,2.0,4.0,83,0.00,,,0.00,meteohub,2013-08-12 07:30:00,
2013-08-12 03:35:00,66.7,61.3,30.02,SE,125,3.0,4.0,83,0.00,,,0.00,meteohub,2013-08-12 07:35:00,
2013-08-12 03:40:00,66.7,61.3,30.02,SE,131,3.0,4.0,83,0.00,,,0.00,meteohub,2013-08-12 07:40:00,
2013-08-12 03:45:00,66.9,61.2,30.02,SSE,152,4.0,6.0,82,0.00,,,0.00,meteohub,2013-08-12 07:45:00,
2013-08-12 03:51:00,66.9,61.2,30.03,SSE,149,2.0,6.0,82,0.00,,,0.00,meteohub,2013-08-12 07:51:00,
2013-08-12 03:56:00,66.9,61.2,30.02,SSE,152,2.0,6.0,82,0.00,,,0.00,meteohub,2013-08-12 07:56:00,
2013-08-12 04:01:00,66.9,61.2,30.02,SSE,164,5.0,6.0,82,0.00,,,0.00,meteohub,2013-08-12 08:01:00,
2013-08-12 04:06:00,66.9,61.2,30.02,SSE,153,2.0,5.0,82,0.00,,,0.00,meteohub,2013-08-12 08:06:00,
2013-08-12 04:12:00,66.9,61.5,30.02,SSE,164,3.0,5.0,83,0.00,,,0.00,meteohub,2013-08-12 08:12:00,
2013-08-12 04:17:00,66.7,61.7,30.02,SW,225,2.0,6.0,84,0.00,,,0.00,meteohub,2013-08-12 08:17:00,
2013-08-12 04:22:00,66.4,61.7,30.03,SSE,150,2.0,6.0,85,0.00,,,0.00,meteohub,2013-08-12 08:22:00,
2013-08-12 04:27:00,66.4,62.1,30.03,SSW,207,3.0,6.0,86,0.00,,,0.00,meteohub,2013-08-12 08:27:00,
2013-08-12 04:32:00,66.2,62.2,30.02,SSW,195,2.0,6.0,87,0.00,,,0.00,meteohub,2013-08-12 08:32:00,
2013-08-12 04:37:00,65.8,61.9,30.02,SE,143,1.0,5.0,87,0.00,,,0.00,meteohub,2013-08-12 08:37:00,
2013-08-12 04:42:00,65.8,62.2,30.02,SSE,158,2.0,5.0,88,0.00,,,0.00,meteohub,2013-08-12 08:42:00,
2013-08-12 04:47:00,65.7,62.2,30.01,SSE,150,2.0,4.0,89,0.00,,,0.00,meteohub,2013-08-12 08:47:00,
2013-08-12 04:52:00,65.5,62.2,30.01,SE,127,1.0,4.0,89,0.00,,,0.00,meteohub,2013-08-12 08:52:00,
2013-08-12 04:57:00,65.5,62.4,30.01,SSE,155,2.0,4.0,90,0.00,,,0.00,meteohub,2013-08-12 08:57:00,
2013-08-12 05:02:00,65.1,62.1,30.02,SSW,200,4.0,4.0,90,0.00,,,0.03,meteohub,2013-08-12 09:02:00,
2013-08-12 05:07:00,65.1,62.4,30.02,SSW,200,3.0,4.0,91,0.04,,,0.03,meteohub,2013-08-12 09:07:00,
2013-08-12 05:12:00,64.9,62.2,30.01,SW,214,5.0,5.0,91,0.04,,,0.03,meteohub,2013-08-12 09:12:00,
2013-08-12 05:17:00,64.8,62.4,30.01,South,184,2.0,5.0,92,0.04,,,0.07,meteohub,2013-08-12 09:17:00,
2013-08-12 05:22:00,64.8,62.4,30.01,WSW,242,3.0,6.0,92,0.08,,,0.07,meteohub,2013-08-12 09:22:00,
2013-08-12 05:27:00,64.8,62.6,30.01,SSW,206,4.0,6.0,93,0.08,,,0.11,meteohub,2013-08-12 09:27:00,
2013-08-12 05:32:00,64.9,63.1,30.02,WSW,243,2.0,6.0,94,0.12,,,0.11,meteohub,2013-08-12 09:32:00,
2013-08-12 05:37:00,64.9,63.1,30.02,West,278,3.0,6.0,94,0.12,,,0.15,meteohub,2013-08-12 09:37:00,
2013-08-12 05:42:00,64.9,63.1,30.02,South,175,1.0,6.0,94,0.16,,,0.15,meteohub,2013-08-12 09:42:00,
2013-08-12 05:47:00,64.9,63.1,30.02,West,274,2.0,6.0,94,0.16,,,0.17,meteohub,2013-08-12 09:47:00,
2013-08-12 05:53:00,64.9,63.1,30.02,SW,231,2.0,5.0,94,0.17,,,0.17,meteohub,2013-08-12 09:53:00,
2013-08-12 05:58:00,64.9,63.5,30.01,WSW,239,3.0,5.0,95,0.16,,,0.17,meteohub,2013-08-12 09:58:00,
2013-08-12 06:03:00,64.9,63.5,30.01,SW,217,1.0,5.0,95,0.16,,,0.17,meteohub,2013-08-12 10:03:00,
2013-08-12 06:08:00,64.9,63.5,30.01,SSW,195,4.0,5.0,95,0.13,,,0.17,meteohub,2013-08-12 10:08:00,
2013-08-12 06:14:00,65.1,63.7,30.01,SSW,210,2.0,4.0,95,0.11,,,0.17,meteohub,2013-08-12 10:14:00,
2013-08-12 06:19:00,65.1,64.0,30.01,SSW,203,4.0,4.0,96,0.11,,,0.17,meteohub,2013-08-12 10:19:00,
2013-08-12 06:24:00,65.3,64.0,30.01,SW,231,6.0,6.0,96,0.11,,,0.18,meteohub,2013-08-12 10:24:00,
2013-08-12 06:29:00,65.5,64.2,30.01,SW,236,3.0,8.0,96,0.07,,,0.18,meteohub,2013-08-12 10:29:00,
2013-08-12 06:35:00,65.5,64.2,30.01,WSW,253,4.0,8.0,96,0.05,,,0.19,meteohub,2013-08-12 10:35:00,
2013-08-12 06:40:00,65.5,64.2,30.01,West,259,1.0,8.0,96,0.05,,,0.19,meteohub,2013-08-12 10:40:00,
2013-08-12 06:45:00,65.3,64.0,30.00,West,277,1.0,8.0,96,0.05,,,0.21,meteohub,2013-08-12 10:45:00,
2013-08-12 06:50:00,65.1,64.0,30.01,WSW,248,5.0,6.0,96,0.05,,,0.21,meteohub,2013-08-12 10:50:00,
2013-08-12 06:55:00,65.1,64.0,30.03,SW,233,6.0,6.0,96,0.07,,,0.23,meteohub,2013-08-12 10:55:00,
2013-08-12 07:01:00,65.1,64.0,30.02,SW,226,3.0,6.0,96,0.07,,,0.28,meteohub,2013-08-12 11:01:00,
2013-08-12 07:06:00,64.9,63.9,30.00,SE,143,6.0,9.0,96,0.11,,,0.28,meteohub,2013-08-12 11:06:00,
2013-08-12 07:11:00,64.9,63.9,30.00,SSE,152,5.0,9.0,96,0.11,,,0.30,meteohub,2013-08-12 11:11:00,
2013-08-12 07:16:00,64.8,63.7,30.00,SSW,205,7.0,9.0,96,0.13,,,0.30,meteohub,2013-08-12 11:16:00,
2013-08-12 07:22:00,64.8,63.7,30.00,SSE,158,4.0,9.0,96,0.13,,,0.32,meteohub,2013-08-12 11:22:00,
2013-08-12 07:27:00,64.6,63.5,30.01,SW,229,4.0,8.0,96,0.15,,,0.32,meteohub,2013-08-12 11:27:00,
2013-08-12 07:32:00,64.6,63.5,30.00,West,264,2.0,8.0,96,0.15,,,0.35,meteohub,2013-08-12 11:32:00,
2013-08-12 07:37:00,64.6,63.5,30.01,West,259,2.0,8.0,96,0.16,,,0.35,meteohub,2013-08-12 11:37:00,
2013-08-12 07:42:00,64.6,63.5,30.01,SSW,204,4.0,8.0,96,0.16,,,0.35,meteohub,2013-08-12 11:42:00,
2013-08-12 07:47:00,64.6,63.7,30.00,South,186,3.0,5.0,97,0.14,,,0.35,meteohub,2013-08-12 11:47:00,
2013-08-12 07:52:00,64.6,63.5,30.00,SSE,152,0.0,5.0,96,0.14,,,0.37,meteohub,2013-08-12 11:52:00,
2013-08-12 07:57:00,64.6,63.7,30.00,South,169,2.0,5.0,97,0.12,,,0.37,meteohub,2013-08-12 11:57:00,
2013-08-12 08:03:00,64.6,63.5,29.99,SSE,164,4.0,5.0,96,0.12,,,0.39,meteohub,2013-08-12 12:03:00,
2013-08-12 08:08:00,64.6,63.5,30.00,SSE,167,3.0,5.0,96,0.11,,,0.39,meteohub,2013-08-12 12:08:00,
2013-08-12 08:13:00,64.6,63.7,30.00,WSW,240,1.0,5.0,97,0.12,,,0.41,meteohub,2013-08-12 12:13:00,
2013-08-12 08:18:00,64.6,63.7,29.99,SSW,197,1.0,5.0,97,0.12,,,0.41,meteohub,2013-08-12 12:18:00,
2013-08-12 08:23:00,64.8,63.9,30.00,SSW,203,0.0,5.0,97,0.08,,,0.42,meteohub,2013-08-12 12:23:00,
2013-08-12 08:29:00,64.8,63.9,29.99,SSE,160,2.0,5.0,97,0.08,,,0.42,meteohub,2013-08-12 12:29:00,
2013-08-12 08:34:00,64.8,63.9,29.99,SSE,155,1.0,5.0,97,0.07,,,0.42,meteohub,2013-08-12 12:34:00,
2013-08-12 08:39:00,64.9,64.0,29.99,SE,141,3.0,5.0,97,0.07,,,0.42,meteohub,2013-08-12 12:39:00,
2013-08-12 08:44:00,64.9,64.0,30.00,SW,224,1.0,5.0,97,0.06,,,0.42,meteohub,2013-08-12 12:44:00,
2013-08-12 08:49:00,65.1,64.2,30.00,SW,236,6.0,6.0,97,0.06,,,0.42,meteohub,2013-08-12 12:49:00,
2013-08-12 08:55:00,65.1,64.2,30.00,WSW,249,3.0,6.0,97,0.05,,,0.42,meteohub,2013-08-12 12:55:00,
2013-08-12 09:00:00,65.1,64.2,30.00,SW,222,3.0,6.0,97,0.05,,,0.42,meteohub,2013-08-12 13:00:00,
2013-08-12 09:05:00,65.1,64.2,29.99,SW,225,1.0,6.0,97,0.03,,,0.42,meteohub,2013-08-12 13:05:00,
2013-08-12 09:10:00,65.5,64.6,29.99,SW,235,1.0,6.0,97,0.03,,,0.42,meteohub,2013-08-12 13:10:00,
2013-08-12 09:16:00,65.5,64.6,29.99,SW,228,3.0,4.0,97,0.01,,,0.43,meteohub,2013-08-12 13:16:00,
2013-08-12 09:21:00,65.5,64.6,29.99,SW,229,1.0,4.0,97,0.01,,,0.43,meteohub,2013-08-12 13:21:00,
2013-08-12 09:26:00,65.7,64.8,29.99,SSW,201,3.0,5.0,97,0.01,,,0.43,meteohub,2013-08-12 13:26:00,
2013-08-12 09:31:00,65.7,64.8,29.99,South,177,3.0,5.0,97,0.01,,,0.43,meteohub,2013-08-12 13:31:00,
2013-08-12 09:36:00,65.7,64.8,30.00,SW,232,6.0,7.0,97,0.01,,,0.43,meteohub,2013-08-12 13:36:00,
2013-08-12 09:42:00,65.7,64.8,29.99,SW,217,4.0,7.0,97,0.01,,,0.45,meteohub,2013-08-12 13:42:00,
2013-08-12 09:47:00,65.7,64.8,29.99,WSW,248,0.0,7.0,97,0.04,,,0.45,meteohub,2013-08-12 13:47:00,
2013-08-12 09:52:00,65.5,64.6,29.98,SSE,149,3.0,7.0,97,0.04,,,0.49,meteohub,2013-08-12 13:52:00,
2013-08-12 09:57:00,65.5,64.6,29.98,South,169,2.0,6.0,97,0.08,,,0.49,meteohub,2013-08-12 13:57:00,
2013-08-12 10:03:00,65.7,64.8,29.99,WSW,250,1.0,6.0,97,0.08,,,0.50,meteohub,2013-08-12 14:03:00,
2013-08-12 10:08:00,65.7,64.8,29.99,SW,221,0.0,6.0,97,0.08,,,0.50,meteohub,2013-08-12 14:08:00,
2013-08-12 10:13:00,65.7,64.8,29.99,SW,235,4.0,4.0,97,0.09,,,0.51,meteohub,2013-08-12 14:13:00,
2013-08-12 10:18:00,65.7,64.8,29.99,South,177,2.0,4.0,97,0.09,,,0.51,meteohub,2013-08-12 14:18:00,
2013-08-12 10:23:00,65.8,64.9,29.99,SW,217,2.0,7.0,97,0.10,,,0.53,meteohub,2013-08-12 14:23:00,
2013-08-12 10:29:00,65.8,64.9,29.99,SW,218,2.0,7.0,97,0.10,,,0.53,meteohub,2013-08-12 14:29:00,
2013-08-12 10:34:00,66.0,65.1,29.98,SW,218,3.0,7.0,97,0.10,,,0.53,meteohub,2013-08-12 14:34:00,
2013-08-12 10:39:00,66.0,65.1,29.99,SW,217,4.0,7.0,97,0.10,,,0.53,meteohub,2013-08-12 14:39:00,
2013-08-12 10:44:00,66.0,65.1,29.98,SSW,203,3.0,5.0,97,0.06,,,0.53,meteohub,2013-08-12 14:44:00,
2013-08-12 10:50:00,66.0,65.1,29.98,SSW,203,4.0,5.0,97,0.06,,,0.53,meteohub,2013-08-12 14:50:00,
2013-08-12 10:55:00,66.2,65.3,29.98,WSW,238,4.0,8.0,97,0.03,,,0.53,meteohub,2013-08-12 14:55:00,
2013-08-12 11:02:00,66.4,65.5,29.99,WSW,255,1.0,8.0,97,0.03,,,0.53,meteohub,2013-08-12 15:02:00,
2013-08-12 11:07:00,66.4,65.5,29.98,WSW,248,2.0,8.0,97,0.02,,,0.53,meteohub,2013-08-12 15:07:00,
2013-08-12 11:12:00,66.7,65.8,29.98,SSW,212,4.0,8.0,97,0.02,,,0.53,meteohub,2013-08-12 15:12:00,
2013-08-12 11:17:00,66.9,66.0,29.98,SSW,203,4.0,5.0,97,0.00,,,0.53,meteohub,2013-08-12 15:17:00,
2013-08-12 11:23:00,67.3,66.4,29.98,SW,224,2.0,5.0,97,0.00,,,0.53,meteohub,2013-08-12 15:23:00,
2013-08-12 11:28:00,67.5,66.2,29.98,SSW,210,6.0,8.0,96,0.00,,,0.53,meteohub,2013-08-12 15:28:00,
2013-08-12 11:33:00,67.5,66.2,29.98,WSW,253,3.0,8.0,96,0.00,,,0.53,meteohub,2013-08-12 15:33:00,
2013-08-12 11:38:00,67.5,66.0,29.99,West,271,3.0,8.0,95,0.00,,,0.53,meteohub,2013-08-12 15:38:00,
2013-08-12 11:43:00,67.3,65.8,29.99,SW,225,0.0,8.0,95,0.00,,,0.53,meteohub,2013-08-12 15:43:00,
2013-08-12 11:49:00,67.3,66.0,29.98,South,179,2.0,8.0,96,0.00,,,0.53,meteohub,2013-08-12 15:49:00,
2013-08-12 11:54:00,67.5,66.0,29.99,West,263,2.0,5.0,95,0.00,,,0.53,meteohub,2013-08-12 15:54:00,
2013-08-12 11:59:00,67.5,66.0,29.99,NW,326,2.0,5.0,95,0.00,,,0.53,meteohub,2013-08-12 15:59:00,
2013-08-12 12:04:00,67.3,65.8,29.98,SE,134,1.0,5.0,95,0.00,,,0.53,meteohub,2013-08-12 16:04:00,
2013-08-12 12:09:00,67.3,65.8,29.97,SSW,194,4.0,4.0,95,0.00,,,0.53,meteohub,2013-08-12 16:09:00,
2013-08-12 12:15:00,67.5,66.2,29.99,WSW,256,2.0,8.0,96,0.00,,,0.53,meteohub,2013-08-12 16:15:00,
2013-08-12 12:20:00,67.5,66.0,29.98,SW,221,0.0,8.0,95,0.00,,,0.53,meteohub,2013-08-12 16:20:00,
2013-08-12 12:25:00,67.6,66.4,29.98,SSW,206,1.0,8.0,96,0.00,,,0.53,meteohub,2013-08-12 16:25:00,
2013-08-12 12:30:00,67.6,66.2,29.99,SW,236,3.0,4.0,95,0.00,,,0.53,meteohub,2013-08-12 16:30:00,
2013-08-12 12:36:00,67.6,66.2,29.99,WSW,240,2.0,4.0,95,0.01,,,0.53,meteohub,2013-08-12 16:36:00,
2013-08-12 12:41:00,67.5,66.0,29.98,SW,224,1.0,5.0,95,0.01,,,0.53,meteohub,2013-08-12 16:41:00,
2013-08-12 12:46:00,67.5,66.0,29.99,SW,217,3.0,5.0,95,0.03,,,0.55,meteohub,2013-08-12 16:46:00,
2013-08-12 12:51:00,67.5,66.0,29.98,SSE,158,3.0,5.0,95,0.03,,,0.56,meteohub,2013-08-12 16:51:00,
2013-08-12 12:57:00,67.5,66.0,29.98,South,173,3.0,5.0,95,0.03,,,0.56,meteohub,2013-08-12 16:57:00,
2013-08-12 13:02:00,67.5,66.0,29.97,SSE,160,3.0,5.0,95,0.03,,,0.60,meteohub,2013-08-12 17:02:00,
2013-08-12 13:07:00,67.3,65.8,29.97,SE,146,4.0,5.0,95,0.12,,,0.60,meteohub,2013-08-12 17:07:00,
2013-08-12 13:12:00,67.3,66.0,29.96,SSE,149,3.0,5.0,96,0.12,,,0.69,meteohub,2013-08-12 17:12:00,
2013-08-12 13:17:00,67.1,65.8,29.97,SSE,148,0.0,6.0,96,0.19,,,0.69,meteohub,2013-08-12 17:17:00,
2013-08-12 13:23:00,67.1,65.8,29.97,SSE,166,2.0,6.0,96,0.19,,,0.81,meteohub,2013-08-12 17:23:00,
2013-08-12 13:28:00,67.3,66.0,29.97,SSW,205,4.0,6.0,96,0.29,,,0.81,meteohub,2013-08-12 17:28:00,
2013-08-12 13:33:00,67.3,66.0,29.97,South,191,0.0,6.0,96,0.28,,,0.82,meteohub,2013-08-12 17:33:00,
2013-08-12 13:38:00,67.5,66.2,29.97,SSW,212,0.0,4.0,96,0.28,,,0.82,meteohub,2013-08-12 17:38:00,
2013-08-12 13:44:00,67.6,66.4,29.96,East,83,2.0,4.0,96,0.26,,,0.82,meteohub,2013-08-12 17:44:00,
2013-08-12 13:49:00,67.5,66.2,29.96,East,79,0.0,4.0,96,0.26,,,0.82,meteohub,2013-08-12 17:49:00,
2013-08-12 13:54:00,67.5,66.2,29.97,NW,322,3.0,3.0,96,0.26,,,0.82,meteohub,2013-08-12 17:54:00,
2013-08-12 13:59:00,67.3,66.0,29.98,NNW,333,4.0,4.0,96,0.26,,,0.82,meteohub,2013-08-12 17:59:00,
2013-08-12 14:04:00,66.9,66.0,29.97,WNW,283,1.0,7.0,97,0.64,,,1.17,meteohub,2013-08-12 18:04:00,
2013-08-12 14:10:00,66.7,65.8,29.96,South,179,0.0,7.0,97,0.64,,,1.17,meteohub,2013-08-12 18:10:00,
2013-08-12 14:15:00,66.0,65.1,29.97,WNW,287,2.0,6.0,97,1.09,,,1.76,meteohub,2013-08-12 18:15:00,
2013-08-12 14:20:00,66.0,65.5,29.96,NW,316,0.0,6.0,98,1.09,,,1.76,meteohub,2013-08-12 18:20:00,
2013-08-12 14:26:00,66.4,65.8,29.96,NNE,15,0.0,4.0,98,1.05,,,1.87,meteohub,2013-08-12 18:26:00,
2013-08-12 14:31:00,66.6,66.0,29.95,NNE,15,0.0,4.0,98,1.05,,,1.87,meteohub,2013-08-12 18:31:00,
2013-08-12 14:36:00,66.7,66.2,29.95,NNE,15,0.0,3.0,98,1.05,,,1.87,meteohub,2013-08-12 18:36:00,
2013-08-12 14:41:00,66.7,66.2,29.95,NNE,15,0.0,3.0,98,1.05,,,1.87,meteohub,2013-08-12 18:41:00,
2013-08-12 14:47:00,66.9,66.4,29.95,ENE,64,1.0,2.0,98,1.05,,,1.87,meteohub,2013-08-12 18:47:00,
2013-08-12 14:52:00,67.3,66.9,29.95,NNE,12,0.0,2.0,99,1.05,,,1.87,meteohub,2013-08-12 18:52:00,
2013-08-12 14:57:00,67.5,67.1,29.94,East,80,2.0,2.0,99,1.05,,,1.87,meteohub,2013-08-12 18:57:00,
2013-08-12 15:02:00,68.0,67.6,29.95,ENE,59,0.0,2.0,99,1.05,,,1.87,meteohub,2013-08-12 19:02:00,
2013-08-12 15:07:00,68.0,67.6,29.95,NNE,15,0.0,2.0,99,0.55,,,1.87,meteohub,2013-08-12 19:07:00,
2013-08-12 15:12:00,67.8,67.3,29.94,NNW,345,1.0,2.0,98,0.55,,,1.87,meteohub,2013-08-12 19:12:00,
2013-08-12 15:17:00,68.4,67.8,29.94,NW,314,0.0,2.0,98,0.04,,,1.87,meteohub,2013-08-12 19:17:00,
2013-08-12 15:22:00,68.7,68.2,29.94,NNW,335,2.0,2.0,98,0.04,,,1.87,meteohub,2013-08-12 19:22:00,
2013-08-12 15:27:00,68.5,68.0,29.94,NNE,12,5.0,5.0,98,0.00,,,1.87,meteohub,2013-08-12 19:27:00,
2013-08-12 15:32:00,68.5,68.0,29.94,WNW,284,2.0,4.0,98,0.00,,,1.87,meteohub,2013-08-12 19:32:00,
2013-08-12 15:37:00,68.5,68.0,29.94,NE,36,4.0,8.0,98,0.00,,,1.87,meteohub,2013-08-12 19:37:00,
2013-08-12 15:43:00,68.7,68.2,29.93,NE,43,1.0,8.0,98,0.00,,,1.87,meteohub,2013-08-12 19:43:00,
2013-08-12 15:48:00,68.5,68.0,29.93,WNW,285,2.0,6.0,98,0.00,,,1.87,meteohub,2013-08-12 19:48:00,
2013-08-12 15:53:00,68.7,68.2,29.92,North,356,4.0,6.0,98,0.00,,,1.87,meteohub,2013-08-12 19:53:00,
2013-08-12 15:58:00,68.7,68.2,29.93,NNW,340,1.0,5.0,98,0.00,,,1.87,meteohub,2013-08-12 19:58:00,
2013-08-12 16:03:00,69.1,68.5,29.92,NNW,332,2.0,5.0,98,0.00,,,1.87,meteohub,2013-08-12 20:03:00,
2013-08-12 16:09:00,69.1,68.5,29.92,NNW,345,4.0,4.0,98,0.00,,,1.87,meteohub,2013-08-12 20:09:00,
2013-08-12 16:14:00,69.1,68.5,29.92,WNW,290,4.0,5.0,98,0.00,,,1.87,meteohub,2013-08-12 20:14:00,
2013-08-12 16:19:00,68.9,68.4,29.92,NW,323,2.0,5.0,98,0.00,,,1.87,meteohub,2013-08-12 20:19:00,
2013-08-12 16:24:00,69.1,68.5,29.92,WNW,295,1.0,5.0,98,0.00,,,1.87,meteohub,2013-08-12 20:24:00,
2013-08-12 16:29:00,69.3,68.7,29.92,NNW,330,3.0,5.0,98,0.00,,,1.87,meteohub,2013-08-12 20:29:00,
2013-08-12 16:35:00,69.4,68.9,29.91,NNW,341,2.0,4.0,98,0.00,,,1.87,meteohub,2013-08-12 20:35:00,
2013-08-12 16:40:00,70.0,69.4,29.92,North,5,3.0,4.0,98,0.00,,,1.87,meteohub,2013-08-12 20:40:00,
2013-08-12 16:45:00,70.0,69.4,29.91,NNW,329,2.0,3.0,98,0.00,,,1.87,meteohub,2013-08-12 20:45:00,
2013-08-12 16:50:00,70.0,69.1,29.91,WNW,293,2.0,3.0,97,0.00,,,1.87,meteohub,2013-08-12 20:50:00,
2013-08-12 16:56:00,70.3,69.8,29.91,NNW,335,2.0,5.0,98,0.00,,,1.87,meteohub,2013-08-12 20:56:00,
2013-08-12 17:01:00,70.2,69.3,29.91,NNW,338,2.0,5.0,97,0.00,,,1.87,meteohub,2013-08-12 21:01:00,
2013-08-12 17:06:00,70.5,69.6,29.91,NNW,340,2.0,6.0,97,0.00,,,1.87,meteohub,2013-08-12 21:06:00,
2013-08-12 17:11:00,70.5,69.3,29.91,NW,326,1.0,6.0,96,0.00,,,1.87,meteohub,2013-08-12 21:11:00,
2013-08-12 17:16:00,70.7,69.4,29.91,North,351,1.0,5.0,96,0.00,,,1.87,meteohub,2013-08-12 21:16:00,
2013-08-12 17:22:00,70.9,69.6,29.91,NW,304,2.0,5.0,96,0.00,,,1.87,meteohub,2013-08-12 21:22:00,
2013-08-12 17:27:00,71.1,69.6,29.91,NE,34,3.0,4.0,95,0.00,,,1.87,meteohub,2013-08-12 21:27:00,
2013-08-12 17:32:00,71.1,69.6,29.91,North,0,3.0,4.0,95,0.00,,,1.87,meteohub,2013-08-12 21:32:00,
2013-08-12 17:37:00,70.9,69.1,29.90,North,1,2.0,5.0,94,0.00,,,1.87,meteohub,2013-08-12 21:37:00,
2013-08-12 17:43:00,71.1,69.3,29.90,NNE,20,1.0,5.0,94,0.00,,,1.87,meteohub,2013-08-12 21:43:00,
2013-08-12 17:48:00,71.2,69.1,29.90,NNW,331,3.0,5.0,93,0.00,,,1.87,meteohub,2013-08-12 21:48:00,
2013-08-12 17:53:00,71.4,69.3,29.90,NW,315,1.0,5.0,93,0.00,,,1.87,meteohub,2013-08-12 21:53:00,
2013-08-12 17:59:00,71.6,69.1,29.90,WNW,290,2.0,5.0,92,0.00,,,1.87,meteohub,2013-08-12 21:59:00,
2013-08-12 18:04:00,72.0,69.4,29.90,NW,305,2.0,5.0,92,0.00,,,1.87,meteohub,2013-08-12 22:04:00,
2013-08-12 18:09:00,72.0,69.4,29.89,NW,311,2.0,6.0,92,0.00,,,1.87,meteohub,2013-08-12 22:09:00,
2013-08-12 18:15:00,72.0,69.4,29.89,NNE,32,1.0,5.0,92,0.00,,,1.87,meteohub,2013-08-12 22:15:00,
2013-08-12 18:20:00,72.1,69.4,29.89,NNW,329,3.0,5.0,91,0.00,,,1.87,meteohub,2013-08-12 22:20:00,
2013-08-12 18:25:00,72.1,69.4,29.88,NW,323,1.0,5.0,91,0.00,,,1.87,meteohub,2013-08-12 22:25:00,
2013-08-12 18:30:00,72.3,69.6,29.88,NW,310,1.0,5.0,91,0.00,,,1.87,meteohub,2013-08-12 22:30:00,
2013-08-12 18:36:00,72.7,69.6,29.88,NW,307,2.0,5.0,90,0.00,,,1.87,meteohub,2013-08-12 22:36:00,
2013-08-12 18:41:00,73.2,69.4,29.88,WNW,297,0.0,5.0,88,0.00,,,1.87,meteohub,2013-08-12 22:41:00,
2013-08-12 18:46:00,73.4,69.3,29.88,North,9,4.0,5.0,87,0.00,,,1.87,meteohub,2013-08-12 22:46:00,
2013-08-12 18:51:00,73.6,69.1,29.87,NNW,329,3.0,5.0,86,0.00,,,1.87,meteohub,2013-08-12 22:51:00,
2013-08-12 18:56:00,73.8,69.6,29.87,NW,323,3.0,6.0,87,0.00,,,1.87,meteohub,2013-08-12 22:56:00,
2013-08-12 19:02:00,73.8,69.3,29.87,NW,326,3.0,6.0,86,0.00,,,1.87,meteohub,2013-08-12 23:02:00,
2013-08-12 19:07:00,73.9,69.1,29.87,NW,318,4.0,6.0,85,0.00,,,1.87,meteohub,2013-08-12 23:07:00,
2013-08-12 19:12:00,73.6,68.4,29.87,WNW,284,3.0,6.0,84,0.00,,,1.87,meteohub,2013-08-12 23:12:00,
2013-08-12 19:17:00,73.2,68.4,29.87,WNW,299,4.0,6.0,85,0.00,,,1.87,meteohub,2013-08-12 23:17:00,
2013-08-12 19:22:00,73.2,68.7,29.87,WNW,295,3.0,6.0,86,0.00,,,1.87,meteohub,2013-08-12 23:22:00,
2013-08-12 19:27:00,73.6,68.7,29.87,WNW,295,3.0,5.0,85,0.00,,,1.87,meteohub,2013-08-12 23:27:00,
2013-08-12 19:32:00,73.6,69.1,29.86,North,351,3.0,5.0,86,0.00,,,1.87,meteohub,2013-08-12 23:32:00,
2013-08-12 19:38:00,73.4,68.9,29.86,NW,318,1.0,5.0,86,0.00,,,1.87,meteohub,2013-08-12 23:38:00,
2013-08-12 19:43:00,73.6,69.4,29.86,NW,316,2.0,5.0,87,0.00,,,1.87,meteohub,2013-08-12 23:43:00,
2013-08-12 19:48:00,73.6,69.1,29.87,WNW,294,2.0,4.0,86,0.00,,,1.87,meteohub,2013-08-12 23:48:00,
2013-08-12 19:53:00,73.6,69.1,29.87,NW,321,2.0,4.0,86,0.00,,,1.87,meteohub,2013-08-12 23:53:00,
2013-08-12 19:59:00,73.4,68.9,29.87,WNW,303,2.0,4.0,86,0.00,,,1.87,meteohub,2013-08-12 23:59:00,
2013-08-12 20:04:00,73.2,68.4,29.87,NW,305,4.0,4.0,85,0.00,,,1.87,meteohub,2013-08-13 00:04:00,
2013-08-12 20:09:00,73.0,68.5,29.87,WNW,290,2.0,5.0,86,0.00,,,1.87,meteohub,2013-08-13 00:09:00,
2013-08-12 20:14:00,72.9,68.4,29.87,WNW,298,2.0,6.0,86,0.00,,,1.87,meteohub,2013-08-13 00:14:00,
2013-08-12 20:17:00,72.9,68.4,29.87,WNW,298,2.0,6.0,86,0.00,,,1.87,meteohub,2013-08-13 00:17:00,
2013-08-12 20:22:00,72.7,68.2,29.87,WNW,295,1.0,6.0,86,0.00,,,1.87,meteohub,2013-08-13 00:22:00,
2013-08-12 20:27:00,72.7,68.5,29.88,WNW,295,1.0,4.0,87,0.00,,,1.87,meteohub,2013-08-13 00:27:00,
2013-08-12 20:32:00,72.1,68.0,29.88,West,281,2.0,4.0,87,0.00,,,1.87,meteohub,2013-08-13 00:32:00,
2013-08-12 20:37:00,72.0,68.2,29.88,West,271,1.0,3.0,88,0.00,,,1.87,meteohub,2013-08-13 00:37:00,
2013-08-12 20:42:00,71.6,67.8,29.88,West,278,2.0,3.0,88,0.00,,,1.87,meteohub,2013-08-13 00:42:00,
2013-08-12 20:47:00,71.2,67.8,29.88,West,279,2.0,3.0,89,0.00,,,1.87,meteohub,2013-08-13 00:47:00,
2013-08-12 20:52:00,71.1,67.6,29.88,West,267,1.0,3.0,89,0.00,,,1.87,meteohub,2013-08-13 00:52:00,
2013-08-12 20:57:00,70.7,67.6,29.88,West,268,1.0,3.0,90,0.00,,,1.87,meteohub,2013-08-13 00:57:00,
2013-08-12 21:02:00,70.3,67.3,29.88,WNW,287,2.0,3.0,90,0.00,,,1.87,meteohub,2013-08-13 01:02:00,
2013-08-12 21:07:00,70.0,67.3,29.88,WNW,287,1.0,3.0,91,0.00,,,1.87,meteohub,2013-08-13 01:07:00,
2013-08-12 21:13:00,69.4,67.1,29.88,WNW,287,1.0,3.0,92,0.00,,,1.87,meteohub,2013-08-13 01:13:00,
2013-08-12 21:14:00,69.3,66.9,29.88,WNW,287,1.0,3.0,92,0.00,,,1.87,meteohub,2013-08-13 01:14:00,
2013-08-12 21:19:00,68.9,66.7,29.88,WNW,287,1.0,3.0,93,0.00,,,1.87,meteohub,2013-08-13 01:19:00,
2013-08-12 21:24:00,68.5,66.4,29.88,WNW,287,0.0,2.0,93,0.00,,,1.87,meteohub,2013-08-13 01:24:00,
2013-08-12 21:29:00,68.4,66.2,29.88,WNW,287,1.0,2.0,93,0.00,,,1.87,meteohub,2013-08-13 01:29:00,
2013-08-12 21:35:00,68.0,65.8,29.88,WNW,290,1.0,2.0,93,0.00,,,1.87,meteohub,2013-08-13 01:35:00,
2013-08-12 21:40:00,67.8,66.0,29.88,WNW,290,0.0,2.0,94,0.00,,,1.87,meteohub,2013-08-13 01:40:00,
2013-08-12 21:45:00,67.6,66.2,29.88,WNW,290,1.0,2.0,95,0.00,,,1.87,meteohub,2013-08-13 01:45:00,
2013-08-12 21:50:00,67.5,66.0,29.88,WNW,283,1.0,2.0,95,0.00,,,1.87,meteohub,2013-08-13 01:50:00,
2013-08-12 21:56:00,67.5,66.0,29.88,West,271,1.0,2.0,95,0.00,,,1.87,meteohub,2013-08-13 01:56:00,
2013-08-12 22:01:00,67.3,65.8,29.89,West,271,1.0,2.0,95,0.00,,,1.87,meteohub,2013-08-13 02:01:00,
2013-08-12 22:06:00,67.1,65.3,29.89,West,271,0.0,1.0,94,0.00,,,1.87,meteohub,2013-08-13 02:06:00,
2013-08-12 22:11:00,66.9,65.1,29.89,West,271,0.0,1.0,94,0.00,,,1.87,meteohub,2013-08-13 02:11:00,
2013-08-12 22:16:00,66.6,64.8,29.89,West,271,0.0,1.0,94,0.00,,,1.87,meteohub,2013-08-13 02:16:00,
2013-08-12 22:22:00,66.6,65.1,29.90,West,271,0.0,1.0,95,0.00,,,1.87,meteohub,2013-08-13 02:22:00,
2013-08-12 22:27:00,66.4,64.9,29.90,West,271,0.0,1.0,95,0.00,,,1.87,meteohub,2013-08-13 02:27:00,
2013-08-12 22:32:00,66.2,64.8,29.90,West,271,1.0,1.0,95,0.00,,,1.87,meteohub,2013-08-13 02:32:00,
2013-08-12 22:37:00,66.0,64.6,29.90,West,271,0.0,2.0,95,0.00,,,1.87,meteohub,2013-08-13 02:37:00,
2013-08-12 22:42:00,65.8,64.4,29.90,West,271,1.0,2.0,95,0.00,,,1.87,meteohub,2013-08-13 02:42:00,
2013-08-12 22:48:00,65.7,64.2,29.90,NNW,338,1.0,2.0,95,0.00,,,1.87,meteohub,2013-08-13 02:48:00,
2013-08-12 22:53:00,65.5,64.0,29.90,North,356,1.0,2.0,95,0.00,,,1.87,meteohub,2013-08-13 02:53:00,
2013-08-12 22:58:00,65.1,63.7,29.90,North,356,0.0,2.0,95,0.00,,,1.87,meteohub,2013-08-13 02:58:00,
2013-08-12 23:03:00,64.9,63.5,29.90,North,357,0.0,2.0,95,0.00,,,1.87,meteohub,2013-08-13 03:03:00,
2013-08-12 23:08:00,64.6,63.1,29.91,North,357,0.0,1.0,95,0.00,,,1.87,meteohub,2013-08-13 03:08:00,
2013-08-12 23:14:00,64.4,63.0,29.91,North,357,0.0,1.0,95,0.00,,,1.87,meteohub,2013-08-13 03:14:00,
2013-08-12 23:19:00,64.2,63.1,29.91,North,357,0.0,1.0,96,0.00,,,1.87,meteohub,2013-08-13 03:19:00,
2013-08-12 23:24:00,64.2,63.1,29.91,North,9,1.0,1.0,96,0.00,,,1.87,meteohub,2013-08-13 03:24:00,
2013-08-12 23:29:00,64.2,63.1,29.91,WNW,293,1.0,1.0,96,0.00,,,1.87,meteohub,2013-08-13 03:29:00,
2013-08-12 23:34:00,64.6,63.5,29.91,NW,314,3.0,5.0,96,0.00,,,1.87,meteohub,2013-08-13 03:34:00,
2013-08-12 23:40:00,64.8,63.7,29.91,WNW,290,3.0,5.0,96,0.00,,,1.87,meteohub,2013-08-13 03:40:00,
2013-08-12 23:45:00,64.8,63.3,29.91,NW,319,0.0,5.0,95,0.00,,,1.87,meteohub,2013-08-13 03:45:00,
2013-08-12 23:53:00,64.8,63.3,29.91,North,358,0.0,5.0,95,0.00,,,1.87,meteohub,2013-08-13 03:53:00,
2013-08-12 23:58:00,64.6,63.1,29.91,North,354,1.0,5.0,95,0.00,,,1.87,meteohub,2013-08-13 03:58:00,